FW2785 Alexandria VA US current weather conditions

sailwx.info

Wind from 259 at 1 knots gusting 4

Air temperature 24.4° C
Dewpoint 14.5° C

Last reported at 2020-Oct-01 15:51 UTC.
Time now 2020-Oct-01 16:17 UTC

Location: N 38°46' W 077°08'.
View on Google Maps.

See reports from other nearby stations

  
Tides and Currents Weather Stations Pressure Air Temp Water Temp Dewpoint Dewpoint Depression Visibility Wind Speed Wind Dir Waves Ship Positions
date/time (UTC)wind fromknots sea level pressurealtimeterstation pressurevisibilityair tempwater tempwave heightnotes
2020-Oct-01 15:51 259 1 gusting 4 24.4
2020-Oct-01 15:41 052 1 gusting 4 25.0
2020-Oct-01 15:31 156 1 gusting 4 22.8
2020-Oct-01 15:22 231 0 gusting 3 21.7
2020-Oct-01 15:15 244 0 gusting 3 21.7
2020-Oct-01 15:01 235 0 gusting 3 21.1
2020-Oct-01 14:51 223 0 gusting 2 21.1
2020-Oct-01 14:41 045 21.1
2020-Oct-01 14:31 216 0 gusting 2 20.6
2020-Oct-01 14:21 227 0 gusting 2 20.0
2020-Oct-01 14:11 225 18.9
2020-Oct-01 14:01 328 0 gusting 2 18.9
2020-Oct-01 13:51 230 18.3
2020-Oct-01 13:41 212 0 gusting 2 17.8
2020-Oct-01 13:31 221 0 gusting 2 17.2
2020-Oct-01 13:21 200 16.7
2020-Oct-01 13:11 203 15.6
2020-Oct-01 13:01 158 15.0
2020-Oct-01 12:51 203 15.0
2020-Oct-01 12:41 113 14.4
2020-Oct-01 12:31 113 13.9
2020-Oct-01 12:21 180 13.9
2020-Oct-01 12:11 203 13.3
2020-Oct-01 12:01 203 13.3
2020-Oct-01 11:51 135 12.8
2020-Oct-01 11:41 180 12.2
2020-Oct-01 11:31 203 12.2
2020-Oct-01 11:21 045 11.7
2020-Oct-01 11:11 113 11.1
2020-Oct-01 11:01 068 11.1
2020-Oct-01 10:51 158 10.6
2020-Oct-01 10:41 180 11.1
2020-Oct-01 10:31 113 11.1
2020-Oct-01 10:21 158 11.1
2020-Oct-01 10:11 180 11.1
2020-Oct-01 10:01 113 11.1
2020-Oct-01 09:51 158 11.7
2020-Oct-01 09:41 060 11.7
2020-Oct-01 09:31 068 11.7
2020-Oct-01 09:21 158 11.7
2020-Oct-01 09:11 158 12.2
2020-Oct-01 09:01 225 12.2
2020-Oct-01 08:51 225 12.2
2020-Oct-01 08:41 146 12.8
2020-Oct-01 08:31 211 12.2
2020-Oct-01 08:21 180 12.2
2020-Oct-01 08:11 180 12.2
2020-Oct-01 08:01 180 12.2
2020-Oct-01 07:51 180 12.2
2020-Oct-01 07:41 180 12.8
2020-Oct-01 07:31 180 12.2
2020-Oct-01 07:21 203 12.2
2020-Oct-01 07:11 158 12.2
2020-Oct-01 07:01 203 12.8
2020-Oct-01 06:51 360 12.2
2020-Oct-01 06:41 113 12.8
2020-Oct-01 06:31 113 12.8
2020-Oct-01 06:21 158 12.8
2020-Oct-01 06:11 113 12.8
2020-Oct-01 06:01 045 13.3
2020-Oct-01 05:51 135 13.3
2020-Oct-01 05:41 045 13.3
2020-Oct-01 05:31 203 13.9
2020-Oct-01 05:21 203 13.9
2020-Oct-01 05:11 180 13.9
2020-Oct-01 05:01 228 13.9
2020-Oct-01 04:51 113 13.9
2020-Oct-01 04:41 203 13.9
2020-Oct-01 04:31 188 0 gusting 2 13.9
2020-Oct-01 04:21 197 13.9
2020-Oct-01 04:11 065 13.9
2020-Oct-01 04:01 183 14.4
2020-Oct-01 03:51 169 14.4
2020-Oct-01 03:41 219 0 gusting 1 14.4
2020-Oct-01 03:31 138 14.4
2020-Oct-01 03:21 193 15.0
2020-Oct-01 03:11 254 15.0
2020-Oct-01 03:01 210 15.6
2020-Oct-01 02:51 203 0 gusting 2 15.6
2020-Oct-01 02:41 217 0 gusting 4 15.6
2020-Oct-01 02:31 220 1 gusting 2 15.6
2020-Oct-01 02:21 218 1 gusting 3 15.6
2020-Oct-01 02:11 195 1 gusting 3 15.6
2020-Oct-01 02:01 225 1 gusting 4 15.6
2020-Oct-01 01:51 214 1 gusting 3 15.0
2020-Oct-01 01:41 213 0 gusting 3 14.4
2020-Oct-01 01:31 196 14.4
2020-Oct-01 01:21 185 14.4
2020-Oct-01 01:11 176 14.4
2020-Oct-01 01:01 111 14.4
2020-Oct-01 00:51 178 0 gusting 2 15.0
2020-Oct-01 00:41 224 14.4
2020-Oct-01 00:31 195 14.4
2020-Oct-01 00:21 212 14.4
2020-Oct-01 00:11 158 14.4
2020-Oct-01 00:01 180 15.0
2020-Sep-30 23:51 180 15.6
2020-Sep-30 23:41 180 15.6
2020-Sep-30 23:31 180 16.1
2020-Sep-30 23:21 199 16.7
2020-Sep-30 23:11 191 17.2
2020-Sep-30 23:01 193 0 gusting 2 17.8
2020-Sep-30 22:51 208 0 gusting 2 17.8
2020-Sep-30 22:41 217 0 gusting 3 18.9
2020-Sep-30 22:31 205 1 gusting 5 18.9
2020-Sep-30 22:21 202 0 gusting 4 19.4
2020-Sep-30 22:11 214 0 gusting 3 20.0
2020-Sep-30 22:01 214 1 gusting 4 20.0
2020-Sep-30 21:51 194 2 gusting 6 20.6
2020-Sep-30 21:41 211 1 gusting 4 20.6
2020-Sep-30 21:31 204 1 gusting 4 21.1
2020-Sep-30 21:21 202 1 gusting 4 21.1
2020-Sep-30 21:11 216 1 gusting 3 21.1
2020-Sep-30 21:01 215 2 gusting 4 21.7
2020-Sep-30 20:51 222 2 gusting 5 21.7
2020-Sep-30 20:41 223 3 gusting 6 21.7
2020-Sep-30 20:31 238 3 gusting 6 21.7
2020-Sep-30 20:21 232 2 gusting 4 22.2
2020-Sep-30 20:11 226 2 gusting 4 22.8
2020-Sep-30 20:01 227 2 gusting 6 21.7
2020-Sep-30 19:51 218 2 gusting 5 22.2
2020-Sep-30 19:41 233 3 gusting 6 21.7
2020-Sep-30 19:31 235 2 gusting 5 22.2
2020-Sep-30 19:21 229 2 gusting 6 22.2
2020-Sep-30 19:11 229 3 gusting 7 21.7
2020-Sep-30 19:01 227 4 gusting 6 21.7
2020-Sep-30 18:51 235 3 gusting 5 21.7
2020-Sep-30 18:41 221 3 gusting 6 21.7
2020-Sep-30 18:31 228 3 gusting 6 21.1
2020-Sep-30 18:21 237 3 gusting 6 21.1
2020-Sep-30 18:11 232 3 gusting 6 20.6
2020-Sep-30 18:01 239 3 gusting 6 20.6
2020-Sep-30 17:51 221 3 gusting 6 21.1
2020-Sep-30 17:41 231 3 gusting 7 20.0
2020-Sep-30 17:31 226 4 gusting 7 20.0
2020-Sep-30 17:21 227 4 gusting 6 20.0
2020-Sep-30 17:11 228 4 gusting 6 20.6
2020-Sep-30 17:01 230 4 gusting 6 20.0
2020-Sep-30 16:51 233 3 gusting 7 20.0
2020-Sep-30 16:41 232 3 gusting 6 19.4
2020-Sep-30 16:31 222 3 gusting 5 20.0
2020-Sep-30 16:21 234 4 gusting 6 20.0
2020-Sep-30 16:11 232 4 gusting 7 20.0
2020-Sep-30 16:01 225 3 gusting 6 19.4
2020-Sep-30 15:51 218 3 gusting 6 19.4
2020-Sep-30 15:41 229 4 gusting 7 18.9
2020-Sep-30 15:31 233 4 gusting 8 18.9
2020-Sep-30 15:21 228 2 gusting 5 18.3
2020-Sep-30 15:11 231 3 gusting 5 18.3
2020-Sep-30 15:01 226 4 gusting 7 17.8
2020-Sep-30 14:51 241 4 gusting 6 17.8
2020-Sep-30 14:41 235 4 gusting 6 17.8
2020-Sep-30 14:31 231 5 gusting 7 17.2
2020-Sep-30 14:21 230 3 gusting 6 17.2
2020-Sep-30 14:11 224 3 gusting 6 16.7
2020-Sep-30 14:01 223 2 gusting 4 16.7
2020-Sep-30 13:51 230 3 gusting 4 16.1
2020-Sep-30 13:41 231 3 gusting 5 15.6
2020-Sep-30 13:31 233 3 gusting 5 15.0
2020-Sep-30 13:21 236 3 gusting 4 14.4
2020-Sep-30 13:11 230 1 gusting 4 13.9
2020-Sep-30 13:01 230 2 gusting 6 13.9
2020-Sep-30 12:51 230 2 gusting 3 13.3
2020-Sep-30 12:41 227 1 gusting 3 12.8
2020-Sep-30 12:31 225 12.2
2020-Sep-30 12:21 203 12.2
2020-Sep-30 12:11 225 11.7
2020-Sep-30 12:01 045 11.1
2020-Sep-30 11:51 045 11.1
2020-Sep-30 11:41 135 11.1
2020-Sep-30 11:31 113 11.1
2020-Sep-30 11:21 158 11.7
2020-Sep-30 11:11 090 11.7
2020-Sep-30 11:01 180 11.7
2020-Sep-30 10:51 180 12.2
2020-Sep-30 10:41 203 12.2
2020-Sep-30 10:31 225 12.2
2020-Sep-30 10:21 203 12.8
2020-Sep-30 10:11 225 12.8
2020-Sep-30 10:01 270 12.8
2020-Sep-30 09:51 270 12.8
2020-Sep-30 09:41 203 12.8
2020-Sep-30 09:31 203 12.8
2020-Sep-30 09:21 225 12.8
2020-Sep-30 09:11 240 12.8
2020-Sep-30 09:01 227 1 gusting 3 12.8
2020-Sep-30 08:51 224 1 gusting 3 12.8
2020-Sep-30 08:41 225 1 gusting 4 12.8
2020-Sep-30 08:31 238 2 gusting 4 12.8
2020-Sep-30 08:21 235 2 gusting 5 12.8
2020-Sep-30 08:11 231 1 gusting 4 12.8
2020-Sep-30 08:01 222 2 gusting 5 12.8
2020-Sep-30 07:51 229 3 gusting 7 12.8
2020-Sep-30 07:41 219 3 gusting 6 12.8
2020-Sep-30 07:31 237 2 gusting 5 12.8
2020-Sep-30 07:21 236 3 gusting 5 12.8
2020-Sep-30 07:11 248 4 gusting 7 12.8
2020-Sep-30 07:01 238 3 gusting 6 12.8
2020-Sep-30 06:51 226 3 gusting 4 12.8
2020-Sep-30 06:41 237 2 gusting 6 12.8
2020-Sep-30 06:31 231 4 gusting 6 12.8
2020-Sep-30 06:21 238 4 gusting 6 12.8
2020-Sep-30 06:11 239 1 gusting 4 12.8
2020-Sep-30 06:01 023 12.8
2020-Sep-30 05:51 048 12.8
2020-Sep-30 05:41 153 0 gusting 3 12.8
2020-Sep-30 05:31 051 1 gusting 3 12.8
2020-Sep-30 05:21 061 2 gusting 5 12.8
2020-Sep-30 05:11 035 2 gusting 5 12.8
2020-Sep-30 05:01 021 2 gusting 5 12.8
2020-Sep-30 04:51 027 2 gusting 6 12.8
2020-Sep-30 04:41 025 2 gusting 6 12.8
2020-Sep-30 04:31 038 3 gusting 6 12.8
2020-Sep-30 04:21 034 2 gusting 6 12.8
2020-Sep-30 04:11 089 12.8
2020-Sep-30 04:01 037 12.8
2020-Sep-30 03:51 269 0 gusting 3 12.8
2020-Sep-30 03:41 356 0 gusting 4 12.8
2020-Sep-30 03:31 026 0 gusting 4 12.8
2020-Sep-30 03:21 045 1 gusting 4 12.8
2020-Sep-30 03:11 299 1 gusting 5 12.8
2020-Sep-30 03:01 344 3 gusting 10 12.8
2020-Sep-30 02:51 352 3 gusting 7 12.8
2020-Sep-30 02:41 036 4 gusting 9 12.8
2020-Sep-30 02:31 287 2 gusting 6 13.3
2020-Sep-30 02:21 335 4 gusting 8 13.3
2020-Sep-30 02:11 003 4 gusting 6 13.3
2020-Sep-30 02:01 243 4 gusting 8 13.3
2020-Sep-30 01:51 038 4 gusting 6 13.9
2020-Sep-30 01:41 290 4 gusting 8 13.9
2020-Sep-30 01:31 339 4 gusting 6 13.9
2020-Sep-30 01:21 347 4 gusting 8 14.4
2020-Sep-30 01:11 331 4 gusting 9 15.0
2020-Sep-30 01:01 270 4 gusting 7 15.0
2020-Sep-30 00:51 315 5 gusting 8 15.0
2020-Sep-30 00:41 307 5 gusting 8 15.6
2020-Sep-30 00:31 319 5 gusting 8 15.6
2020-Sep-30 00:21 309 5 gusting 10 15.6
2020-Sep-30 00:11 349 6 gusting 8 16.1
2020-Sep-30 00:01 318 5 gusting 9 16.7
2020-Sep-29 23:51 321 5 gusting 7 16.7
2020-Sep-29 23:41 341 5 gusting 8 17.2
2020-Sep-29 23:31 330 3 gusting 6 17.8
2020-Sep-29 23:21 300 4 gusting 6 17.8
2020-Sep-29 23:11 338 2 gusting 5 17.8
2020-Sep-29 23:01 025 1 gusting 4 17.8
2020-Sep-29 22:51 022 2 gusting 7 18.3
2020-Sep-29 22:41 023 4 gusting 7 18.9
2020-Sep-29 22:31 324 2 gusting 5 18.9
2020-Sep-29 22:21 309 1 gusting 5 18.9
2020-Sep-29 22:11 001 2 gusting 5 19.4
2020-Sep-29 22:01 003 2 gusting 5 19.4
2020-Sep-29 21:51 302 3 gusting 6 20.0
2020-Sep-29 21:41 305 2 gusting 5 20.6
2020-Sep-29 21:31 295 3 gusting 5 20.6
2020-Sep-29 21:21 297 3 gusting 4 21.1
2020-Sep-29 21:11 353 2 gusting 5 21.7
2020-Sep-29 21:01 273 3 gusting 6 22.2
2020-Sep-29 20:51 305 3 gusting 6 22.8
2020-Sep-29 20:41 292 3 gusting 6 22.8
2020-Sep-29 20:31 318 3 gusting 5 22.8
2020-Sep-29 20:21 324 3 gusting 6 23.9
2020-Sep-29 20:11 296 2 gusting 5 24.4
2020-Sep-29 20:01 324 2 gusting 5 25.0
2020-Sep-29 19:51 294 1 gusting 4 26.7
2020-Sep-29 19:41 254 1 gusting 5 27.2
2020-Sep-29 19:31 230 1 gusting 5 27.2
2020-Sep-29 19:21 211 1 gusting 5 27.2
2020-Sep-29 19:11 227 1 gusting 3 27.8
2020-Sep-29 19:01 193 0 gusting 2 28.3
2020-Sep-29 18:51 207 1 gusting 4 27.8
2020-Sep-29 18:41 239 1 gusting 4 27.2
2020-Sep-29 18:31 221 1 gusting 3 27.8
2020-Sep-29 18:21 226 1 gusting 3 27.2
2020-Sep-29 18:11 196 1 gusting 6 27.2
2020-Sep-29 18:01 216 0 gusting 5 27.8
2020-Sep-29 17:51 207 2 gusting 4 26.7
2020-Sep-29 17:41 209 1 gusting 3 26.1
2020-Sep-29 17:31 219 0 gusting 2 26.7
2020-Sep-29 17:21 229 1 gusting 4 25.6
2020-Sep-29 17:11 210 1 gusting 4 25.6
2020-Sep-29 17:01 221 1 gusting 3 25.6
2020-Sep-29 16:51 207 2 gusting 6 26.1
2020-Sep-29 16:41 216 2 gusting 6 26.1
2020-Sep-29 16:31 197 2 gusting 4 26.1
2020-Sep-29 16:21 203 1 gusting 5 25.6
2020-Sep-29 16:11 199 2 gusting 4 26.1
2020-Sep-29 16:01 223 1 gusting 5 26.1